Time,TemperatureF,DewpointF,PressureIn,WindDirection,WindDirectionDegrees,WindSpeedMPH,WindSpeedGustMPH,Humidity,HourlyPrecipIn,Conditions,Clouds,dailyrainin,SoftwareType,DateUTC
2013-01-25 00:00:00,4.6,-12.0,30.15,SSW,193,4.0,4.7,45,0.00,,---,0.00,VWS V13.01,2013-01-25 06:00:00,
2013-01-25 00:05:00,4.8,-11.9,30.15,South,180,4.0,4.5,45,0.00,,---,0.00,VWS V13.01,2013-01-25 06:05:00,
2013-01-25 00:11:00,5.0,-11.7,30.15,South,188,4.0,4.5,45,0.00,,---,0.00,VWS V13.01,2013-01-25 06:11:00,
2013-01-25 00:17:00,5.0,-11.7,30.15,South,177,4.0,5.1,45,0.00,,---,0.00,VWS V13.01,2013-01-25 06:17:00,
2013-01-25 00:22:00,5.4,-11.4,30.15,SW,220,4.7,5.1,45,0.00,,---,0.00,VWS V13.01,2013-01-25 06:22:00,
2013-01-25 00:27:00,5.4,-11.4,30.12,South,188,4.0,4.7,45,0.00,,---,0.00,VWS V13.01,2013-01-25 06:27:00,
2013-01-25 00:32:00,5.5,-11.2,30.12,SW,224,4.7,4.7,45,0.00,,---,0.00,VWS V13.01,2013-01-25 06:32:00,
2013-01-25 00:37:00,5.7,-11.0,30.12,SSE,168,4.5,4.5,45,0.00,,---,0.00,VWS V13.01,2013-01-25 06:37:00,
2013-01-25 00:42:00,5.9,-10.9,30.12,South,187,5.1,5.6,45,0.00,,---,0.00,VWS V13.01,2013-01-25 06:42:00,
2013-01-25 00:48:00,6.1,-10.7,30.12,South,186,4.0,4.7,45,0.00,,---,0.00,VWS V13.01,2013-01-25 06:48:00,
2013-01-25 00:53:00,6.3,-10.5,30.12,SSW,197,4.7,6.0,45,0.00,,---,0.00,VWS V13.01,2013-01-25 06:53:00,
2013-01-25 00:58:00,6.4,-10.4,30.12,SSW,194,5.6,5.6,45,0.00,,---,0.00,VWS V13.01,2013-01-25 06:58:00,
2013-01-25 01:03:00,6.8,-10.0,30.12,South,177,4.7,4.7,45,0.00,,---,0.00,VWS V13.01,2013-01-25 07:03:00,
2013-01-25 01:09:00,6.8,-10.0,30.12,South,175,4.5,5.6,45,0.00,,---,0.00,VWS V13.01,2013-01-25 07:09:00,
2013-01-25 01:14:00,7.0,-9.9,30.09,South,186,6.5,6.5,45,0.00,,---,0.00,VWS V13.01,2013-01-25 07:14:00,
2013-01-25 01:20:00,7.2,-9.7,30.09,South,170,4.7,5.6,45,0.00,,---,0.00,VWS V13.01,2013-01-25 07:20:00,
2013-01-25 01:26:00,7.2,-9.7,30.09,South,191,7.8,7.8,45,0.00,,---,0.00,VWS V13.01,2013-01-25 07:26:00,
2013-01-25 01:32:00,7.5,-9.4,30.09,SSE,160,5.6,5.6,45,0.00,,---,0.00,VWS V13.01,2013-01-25 07:32:00,
2013-01-25 01:37:00,7.5,-9.4,30.09,SSW,212,5.1,5.1,45,0.00,,---,0.00,VWS V13.01,2013-01-25 07:37:00,
2013-01-25 01:43:00,7.5,-9.4,30.09,SSW,197,5.1,6.5,45,0.00,,---,0.00,VWS V13.01,2013-01-25 07:43:00,
2013-01-25 01:49:00,7.7,-9.2,30.09,South,190,6.9,6.9,45,0.00,,---,0.00,VWS V13.01,2013-01-25 07:49:00,
2013-01-25 01:54:00,7.7,-9.2,30.09,SSW,202,6.9,6.9,45,0.00,,---,0.00,VWS V13.01,2013-01-25 07:54:00,
2013-01-25 01:59:00,7.7,-9.2,30.09,SSW,210,5.6,8.7,45,0.00,,---,0.00,VWS V13.01,2013-01-25 07:59:00,
2013-01-25 02:05:00,7.7,-9.2,30.09,SSW,195,5.6,6.5,45,0.00,,---,0.00,VWS V13.01,2013-01-25 08:05:00,
2013-01-25 02:10:00,7.7,-9.2,30.09,SSW,204,4.0,5.1,45,0.00,,---,0.00,VWS V13.01,2013-01-25 08:10:00,
2013-01-25 02:15:00,7.7,-9.2,30.09,SSW,194,4.7,6.0,45,0.00,,---,0.00,VWS V13.01,2013-01-25 08:15:00,
2013-01-25 02:21:00,7.9,-9.0,30.09,SSW,197,5.1,7.4,45,0.00,,---,0.00,VWS V13.01,2013-01-25 08:21:00,
2013-01-25 02:27:00,7.9,-9.0,30.06,SW,216,7.4,7.4,45,0.00,,---,0.00,VWS V13.01,2013-01-25 08:27:00,
2013-01-25 02:33:00,7.9,-9.0,30.06,SSW,199,4.7,5.1,45,0.00,,---,0.00,VWS V13.01,2013-01-25 08:33:00,
2013-01-25 02:38:00,7.9,-9.0,30.06,SSW,197,5.1,6.0,45,0.00,,---,0.00,VWS V13.01,2013-01-25 08:38:00,
2013-01-25 02:43:00,8.1,-8.9,30.06,SSW,202,5.1,5.6,45,0.00,,---,0.00,VWS V13.01,2013-01-25 08:43:00,
2013-01-25 02:48:00,8.1,-8.9,30.06,SSW,193,4.7,5.6,45,0.00,,---,0.00,VWS V13.01,2013-01-25 08:48:00,
2013-01-25 02:53:00,8.1,-8.9,30.06,SW,230,5.1,5.1,45,0.00,,---,0.00,VWS V13.01,2013-01-25 08:53:00,
2013-01-25 02:59:00,8.1,-8.9,30.06,SSW,200,6.0,6.5,45,0.00,,---,0.00,VWS V13.01,2013-01-25 08:59:00,
2013-01-25 03:04:00,8.1,-8.9,30.06,South,186,5.6,5.6,45,0.00,,---,0.00,VWS V13.01,2013-01-25 09:04:00,
2013-01-25 03:09:00,8.1,-8.9,30.06,SSW,204,5.1,5.1,45,0.00,,---,0.00,VWS V13.01,2013-01-25 09:09:00,
2013-01-25 03:14:00,7.9,-9.0,30.03,South,189,4.5,4.7,45,0.00,,---,0.00,VWS V13.01,2013-01-25 09:14:00,
2013-01-25 03:20:00,7.9,-9.0,30.03,SSE,164,4.5,5.6,45,0.00,,---,0.00,VWS V13.01,2013-01-25 09:20:00,
2013-01-25 03:26:00,7.9,-9.0,30.03,SSW,197,4.5,5.1,45,0.00,,---,0.00,VWS V13.01,2013-01-25 09:26:00,
2013-01-25 03:32:00,7.9,-9.0,30.03,South,182,4.5,4.7,45,0.00,,---,0.00,VWS V13.01,2013-01-25 09:32:00,
2013-01-25 03:37:00,7.9,-9.0,30.03,South,183,4.0,4.5,45,0.00,,---,0.00,VWS V13.01,2013-01-25 09:37:00,
2013-01-25 03:42:00,7.9,-9.0,30.00,South,169,4.0,4.5,45,0.00,,---,0.00,VWS V13.01,2013-01-25 09:42:00,
2013-01-25 03:48:00,7.9,-9.0,30.00,SSE,163,3.6,4.7,45,0.00,,---,0.00,VWS V13.01,2013-01-25 09:48:00,
2013-01-25 03:53:00,7.9,-9.0,30.00,South,184,4.0,4.5,45,0.00,,---,0.00,VWS V13.01,2013-01-25 09:53:00,
2013-01-25 03:59:00,7.9,-9.0,30.00,SSW,192,4.5,5.1,45,0.00,,---,0.00,VWS V13.01,2013-01-25 09:59:00,
2013-01-25 04:04:00,7.9,-9.0,30.00,SW,222,6.9,6.9,45,0.00,,---,0.00,VWS V13.01,2013-01-25 10:04:00,
2013-01-25 04:09:00,7.9,-9.0,30.00,South,188,6.0,6.0,45,0.00,,---,0.00,VWS V13.01,2013-01-25 10:09:00,
2013-01-25 04:15:00,8.1,-8.9,29.97,SSW,194,4.5,4.7,45,0.00,,---,0.00,VWS V13.01,2013-01-25 10:15:00,
2013-01-25 04:21:00,8.1,-8.9,29.97,SSE,159,4.5,5.6,45,0.00,,---,0.00,VWS V13.01,2013-01-25 10:21:00,
2013-01-25 04:27:00,8.1,-8.9,29.97,SW,230,4.0,5.1,45,0.00,,---,0.00,VWS V13.01,2013-01-25 10:27:00,
2013-01-25 04:32:00,8.1,-8.9,29.97,South,180,5.1,5.1,45,0.00,,---,0.00,VWS V13.01,2013-01-25 10:32:00,
2013-01-25 04:38:00,8.2,-8.7,29.97,SSW,193,4.7,4.7,45,0.00,,---,0.00,VWS V13.01,2013-01-25 10:38:00,
2013-01-25 04:43:00,8.2,-8.7,29.97,SSW,197,5.1,5.1,45,0.00,,---,0.00,VWS V13.01,2013-01-25 10:43:00,
2013-01-25 04:48:00,8.2,-8.7,29.97,SSW,206,4.5,4.7,45,0.00,,---,0.00,VWS V13.01,2013-01-25 10:48:00,
2013-01-25 04:54:00,8.2,-8.7,29.97,South,187,4.5,4.7,45,0.00,,---,0.00,VWS V13.01,2013-01-25 10:54:00,
2013-01-25 04:59:00,8.2,-8.7,29.97,South,173,4.5,4.5,45,0.00,,---,0.00,VWS V13.01,2013-01-25 10:59:00,
2013-01-25 05:05:00,8.2,-8.7,29.97,SSW,194,4.5,4.5,45,0.00,,---,0.00,VWS V13.01,2013-01-25 11:05:00,
2013-01-25 05:11:00,8.2,-8.7,29.94,South,191,4.7,4.7,45,0.00,,---,0.00,VWS V13.01,2013-01-25 11:11:00,
2013-01-25 05:16:00,8.2,-8.7,29.94,South,171,4.7,4.7,45,0.00,,---,0.00,VWS V13.01,2013-01-25 11:16:00,
2013-01-25 05:22:00,8.2,-8.7,29.94,South,189,3.6,4.7,45,0.00,,---,0.00,VWS V13.01,2013-01-25 11:22:00,
2013-01-25 05:27:00,8.2,-8.7,29.94,SSW,201,3.6,4.7,45,0.00,,---,0.00,VWS V13.01,2013-01-25 11:27:00,
2013-01-25 05:33:00,8.2,-8.7,29.94,SSW,195,4.0,5.1,45,0.00,,---,0.00,VWS V13.01,2013-01-25 11:33:00,
2013-01-25 05:38:00,8.2,-8.7,29.94,SW,214,4.0,4.0,45,0.00,,---,0.00,VWS V13.01,2013-01-25 11:38:00,
2013-01-25 05:44:00,8.2,-8.7,29.91,South,189,4.0,4.0,45,0.00,,---,0.00,VWS V13.01,2013-01-25 11:44:00,
2013-01-25 05:50:00,8.2,-8.7,29.91,South,181,4.5,4.5,45,0.00,,---,0.00,VWS V13.01,2013-01-25 11:50:00,
2013-01-25 05:56:00,8.2,-8.7,29.91,South,172,3.6,3.6,45,0.00,,---,0.00,VWS V13.01,2013-01-25 11:56:00,
2013-01-25 06:01:00,8.2,-8.7,29.91,South,185,4.0,4.5,45,0.00,,---,0.00,VWS V13.01,2013-01-25 12:01:00,
2013-01-25 06:07:00,8.2,-8.7,29.91,South,189,4.0,4.5,45,0.00,,---,0.00,VWS V13.01,2013-01-25 12:07:00,
2013-01-25 06:12:00,8.2,-8.7,29.91,South,177,3.1,4.0,45,0.00,,---,0.00,VWS V13.01,2013-01-25 12:12:00,
2013-01-25 06:17:00,8.2,-8.7,29.91,South,173,4.0,4.0,45,0.00,,---,0.00,VWS V13.01,2013-01-25 12:17:00,
2013-01-25 06:22:00,8.2,-8.7,29.91,South,173,4.0,4.0,45,0.00,,---,0.00,VWS V13.01,2013-01-25 12:22:00,
2013-01-25 06:28:00,8.2,-8.7,29.91,South,173,3.6,4.5,45,0.00,,---,0.00,VWS V13.01,2013-01-25 12:28:00,
2013-01-25 06:33:00,8.2,-8.7,29.91,South,190,3.6,4.0,45,0.00,,---,0.00,VWS V13.01,2013-01-25 12:33:00,
2013-01-25 06:38:00,8.2,-8.7,29.91,South,190,3.1,3.6,45,0.00,,---,0.00,VWS V13.01,2013-01-25 12:38:00,
2013-01-25 06:43:00,8.4,-8.5,29.91,SSW,198,4.0,4.0,45,0.00,,---,0.00,VWS V13.01,2013-01-25 12:43:00,
2013-01-25 06:49:00,8.4,-8.5,29.91,South,188,3.6,3.6,45,0.00,,---,0.00,VWS V13.01,2013-01-25 12:49:00,
2013-01-25 06:55:00,8.4,-8.5,29.88,South,169,4.0,4.5,45,0.00,,---,0.00,VWS V13.01,2013-01-25 12:55:00,
2013-01-25 07:00:00,8.4,-8.5,29.88,South,184,3.6,4.0,45,0.00,,---,0.00,VWS V13.01,2013-01-25 13:00:00,
2013-01-25 07:05:00,8.4,-8.5,29.88,SSE,168,3.6,3.6,45,0.00,,---,0.00,VWS V13.01,2013-01-25 13:05:00,
2013-01-25 07:10:00,8.4,-8.5,29.88,South,175,3.1,3.1,45,0.00,,---,0.00,VWS V13.01,2013-01-25 13:10:00,
2013-01-25 07:16:00,8.4,-8.5,29.88,South,178,3.1,4.0,45,0.00,,---,0.00,VWS V13.01,2013-01-25 13:16:00,
2013-01-25 07:21:00,8.4,-8.5,29.88,South,178,3.6,3.6,45,0.00,,---,0.00,VWS V13.01,2013-01-25 13:21:00,
2013-01-25 07:27:00,8.4,-8.5,29.88,South,184,3.1,3.1,45,0.00,,---,0.00,VWS V13.01,2013-01-25 13:27:00,
2013-01-25 07:32:00,8.4,-8.5,29.88,South,184,2.7,3.6,45,0.00,,---,0.00,VWS V13.01,2013-01-25 13:32:00,
2013-01-25 07:37:00,8.4,-8.5,29.88,South,184,3.1,3.6,45,0.00,,---,0.00,VWS V13.01,2013-01-25 13:37:00,
2013-01-25 07:42:00,8.4,-8.5,29.88,South,184,2.7,2.7,45,0.00,,---,0.00,VWS V13.01,2013-01-25 13:42:00,
2013-01-25 07:47:00,8.4,-8.5,29.88,South,184,2.7,3.1,45,0.00,,---,0.00,VWS V13.01,2013-01-25 13:47:00,
2013-01-25 07:52:00,8.4,-8.5,29.88,South,183,2.7,2.7,45,0.00,,---,0.00,VWS V13.01,2013-01-25 13:52:00,
2013-01-25 07:57:00,8.6,-8.4,29.88,South,183,3.1,3.6,45,0.00,,---,0.00,VWS V13.01,2013-01-25 13:57:00,
2013-01-25 08:02:00,8.6,-8.4,29.88,South,184,2.7,3.6,45,0.00,,---,0.00,VWS V13.01,2013-01-25 14:02:00,
2013-01-25 08:08:00,8.6,-8.4,29.88,South,183,2.7,2.7,45,0.00,,---,0.00,VWS V13.01,2013-01-25 14:08:00,
2013-01-25 08:13:00,8.6,-8.4,29.88,South,184,3.1,3.1,45,0.00,,---,0.00,VWS V13.01,2013-01-25 14:13:00,
2013-01-25 08:18:00,8.6,-8.4,29.88,South,184,3.1,4.0,45,0.00,,---,0.00,VWS V13.01,2013-01-25 14:18:00,
2013-01-25 08:23:00,8.6,-8.4,29.88,South,183,2.7,3.1,45,0.00,,---,0.00,VWS V13.01,2013-01-25 14:23:00,
2013-01-25 08:28:00,8.8,-8.2,29.88,South,183,0.0,0.0,45,0.00,,---,0.00,VWS V13.01,2013-01-25 14:28:00,
2013-01-25 08:33:00,8.8,-8.2,29.88,SW,218,0.0,0.0,45,0.00,,---,0.00,VWS V13.01,2013-01-25 14:33:00,
2013-01-25 08:38:00,8.8,-8.2,29.88,SW,218,0.0,0.0,45,0.00,,---,0.00,VWS V13.01,2013-01-25 14:38:00,
2013-01-25 08:43:00,8.8,-8.2,29.88,SW,218,0.0,0.0,45,0.00,,---,0.00,VWS V13.01,2013-01-25 14:43:00,
2013-01-25 08:48:00,9.0,-8.1,29.88,SW,218,0.0,0.0,45,0.00,,---,0.00,VWS V13.01,2013-01-25 14:48:00,
2013-01-25 08:53:00,9.1,-7.9,29.88,SW,218,0.0,0.0,45,0.00,,---,0.00,VWS V13.01,2013-01-25 14:53:00,
2013-01-25 08:58:00,9.1,-7.9,29.88,SW,218,0.0,0.0,45,0.00,,---,0.00,VWS V13.01,2013-01-25 14:58:00,
2013-01-25 09:03:00,9.3,-7.7,29.88,SW,218,0.0,0.0,45,0.00,,---,0.00,VWS V13.01,2013-01-25 15:03:00,
2013-01-25 09:08:00,9.3,-7.7,29.88,SW,218,0.0,0.0,45,0.00,,---,0.00,VWS V13.01,2013-01-25 15:08:00,
2013-01-25 09:13:00,9.5,-7.6,29.88,SW,218,0.0,0.0,45,0.00,,---,0.00,VWS V13.01,2013-01-25 15:13:00,
2013-01-25 09:18:00,9.7,-7.4,29.88,SW,218,0.0,0.0,45,0.00,,---,0.00,VWS V13.01,2013-01-25 15:18:00,
2013-01-25 09:23:00,9.7,-7.4,29.88,SW,218,0.0,0.0,45,0.00,,---,0.00,VWS V13.01,2013-01-25 15:23:00,
2013-01-25 09:28:00,10.0,-7.1,29.88,SW,218,0.0,0.0,45,0.00,,---,0.00,VWS V13.01,2013-01-25 15:28:00,
2013-01-25 09:33:00,10.2,-6.9,29.88,SW,218,0.0,0.0,45,0.00,,---,0.00,VWS V13.01,2013-01-25 15:33:00,
2013-01-25 09:38:00,10.4,-6.7,29.88,SW,218,0.0,0.0,45,0.00,,---,0.00,VWS V13.01,2013-01-25 15:38:00,
2013-01-25 09:44:00,10.8,-6.4,29.88,SW,218,0.0,0.0,45,0.00,,---,0.00,VWS V13.01,2013-01-25 15:44:00,
2013-01-25 09:49:00,10.9,-6.2,29.88,SW,218,0.0,0.0,45,0.00,,---,0.00,VWS V13.01,2013-01-25 15:49:00,
2013-01-25 09:54:00,11.3,-5.9,29.88,SW,218,0.0,0.0,45,0.00,,---,0.00,VWS V13.01,2013-01-25 15:54:00,
2013-01-25 09:59:00,11.5,-5.7,29.88,SW,218,0.0,0.0,45,0.00,,---,0.00,VWS V13.01,2013-01-25 15:59:00,
2013-01-25 10:05:00,11.8,-5.4,29.88,SW,218,0.0,0.0,45,0.00,,---,0.00,VWS V13.01,2013-01-25 16:05:00,
2013-01-25 10:10:00,12.0,-5.2,29.88,SW,218,0.0,0.0,45,0.00,,---,0.00,VWS V13.01,2013-01-25 16:10:00,
2013-01-25 10:15:00,12.2,-5.1,29.88,SW,218,0.0,0.0,45,0.00,,---,0.00,VWS V13.01,2013-01-25 16:15:00,
2013-01-25 10:20:00,12.6,-4.7,29.88,SW,218,0.0,0.0,45,0.00,,---,0.00,VWS V13.01,2013-01-25 16:20:00,
2013-01-25 10:25:00,12.9,-4.4,29.88,SW,218,0.0,0.0,45,0.00,,---,0.00,VWS V13.01,2013-01-25 16:25:00,
2013-01-25 10:31:00,13.3,-4.1,29.88,SW,218,0.0,0.0,45,0.00,,---,0.00,VWS V13.01,2013-01-25 16:31:00,
2013-01-25 10:36:00,13.5,-3.9,29.88,SW,217,2.7,3.6,45,0.00,,---,0.00,VWS V13.01,2013-01-25 16:36:00,
2013-01-25 10:42:00,13.6,-3.8,29.88,SW,218,0.0,0.0,45,0.00,,---,0.00,VWS V13.01,2013-01-25 16:42:00,
2013-01-25 10:48:00,13.8,-3.6,29.88,SW,218,0.0,0.0,45,0.00,,---,0.00,VWS V13.01,2013-01-25 16:48:00,
2013-01-25 10:54:00,14.4,4.4,29.88,SW,218,0.0,0.0,64,0.00,,---,0.00,VWS V13.01,2013-01-25 16:54:00,
2013-01-25 10:59:00,14.7,4.8,29.88,SW,218,0.0,0.0,64,0.00,,---,0.00,VWS V13.01,2013-01-25 16:59:00,
2013-01-25 11:04:00,14.9,4.9,29.88,SW,218,0.0,0.0,64,0.00,,---,0.00,VWS V13.01,2013-01-25 17:04:00,
2013-01-25 11:10:00,15.3,4.9,29.88,WSW,237,4.0,7.8,63,0.00,,---,0.00,VWS V13.01,2013-01-25 17:10:00,
2013-01-25 11:15:00,15.4,4.8,29.88,SW,222,0.0,0.0,62,0.00,,---,0.00,VWS V13.01,2013-01-25 17:15:00,
2013-01-25 11:20:00,16.0,4.9,29.88,WNW,303,5.1,5.1,61,0.00,,---,0.00,VWS V13.01,2013-01-25 17:20:00,
2013-01-25 11:26:00,15.8,4.0,29.88,West,268,4.0,6.0,59,0.00,,---,0.00,VWS V13.01,2013-01-25 17:26:00,
2013-01-25 11:37:00,16.3,4.2,29.88,West,274,5.1,5.1,58,0.00,,---,0.00,VWS V13.01,2013-01-25 17:37:00,
2013-01-25 11:42:00,16.9,4.3,29.88,NNW,333,4.5,8.7,57,0.00,,---,0.00,VWS V13.01,2013-01-25 17:42:00,
2013-01-25 11:47:00,16.7,3.7,29.88,SSW,200,4.5,4.5,56,0.00,,---,0.00,VWS V13.01,2013-01-25 17:47:00,
2013-01-25 11:53:00,16.7,3.3,29.88,SW,220,3.1,5.1,55,0.00,,---,0.00,VWS V13.01,2013-01-25 17:53:00,
2013-01-25 11:58:00,17.4,3.6,29.88,WNW,297,6.5,6.5,54,0.00,,---,0.00,VWS V13.01,2013-01-25 17:58:00,
2013-01-25 12:04:00,18.1,4.3,29.88,North,4,4.0,6.0,54,0.00,,---,0.00,VWS V13.01,2013-01-25 18:04:00,
2013-01-25 12:10:00,17.8,2.7,29.88,West,277,5.6,7.4,51,0.00,,---,0.00,VWS V13.01,2013-01-25 18:10:00,
2013-01-25 12:16:00,17.2,1.8,29.88,North,357,5.1,5.1,50,0.00,,---,0.00,VWS V13.01,2013-01-25 18:16:00,
2013-01-25 12:21:00,17.1,1.6,29.88,NNW,342,5.6,5.6,50,0.00,,---,0.00,VWS V13.01,2013-01-25 18:21:00,
2013-01-25 12:26:00,16.7,1.3,29.88,NW,313,4.5,5.6,50,0.00,,---,0.00,VWS V13.01,2013-01-25 18:26:00,
2013-01-25 12:33:00,17.4,2.0,29.88,NW,321,3.6,6.9,50,0.00,,---,0.00,VWS V13.01,2013-01-25 18:33:00,
2013-01-25 12:38:00,18.7,3.6,29.88,NNW,348,4.5,5.1,51,0.00,,---,0.00,VWS V13.01,2013-01-25 18:38:00,
2013-01-25 12:44:00,19.2,3.6,29.88,NNW,328,4.7,5.6,50,0.00,,---,0.00,VWS V13.01,2013-01-25 18:44:00,
2013-01-25 12:49:00,18.9,2.0,29.88,NW,322,4.7,6.0,47,0.00,,---,0.00,VWS V13.01,2013-01-25 18:49:00,
2013-01-25 12:55:00,18.5,2.1,29.88,WNW,287,4.7,5.1,48,0.00,,---,0.00,VWS V13.01,2013-01-25 18:55:00,
2013-01-25 13:01:00,18.1,1.8,29.88,West,271,4.0,5.1,48,0.00,,---,0.00,VWS V13.01,2013-01-25 19:01:00,
2013-01-25 13:06:00,17.4,1.5,29.88,NNW,329,4.7,6.9,49,0.00,,---,0.00,VWS V13.01,2013-01-25 19:06:00,
2013-01-25 13:12:00,16.7,1.3,29.91,NNW,343,4.7,4.7,50,0.00,,---,0.00,VWS V13.01,2013-01-25 19:12:00,
2013-01-25 13:18:00,16.0,0.6,29.91,NNE,12,5.6,7.8,50,0.00,,---,0.00,VWS V13.01,2013-01-25 19:18:00,
2013-01-25 13:23:00,15.8,0.9,29.91,NW,316,5.6,6.9,51,0.00,,---,0.00,VWS V13.01,2013-01-25 19:23:00,
2013-01-25 13:28:00,15.8,1.3,29.91,North,353,4.0,4.0,52,0.00,,---,0.00,VWS V13.01,2013-01-25 19:28:00,
2013-01-25 13:34:00,16.3,1.8,29.91,NNW,346,5.6,6.5,52,0.00,,---,0.00,VWS V13.01,2013-01-25 19:34:00,
2013-01-25 13:39:00,17.1,2.5,29.91,WNW,295,4.0,5.1,52,0.00,,---,0.00,VWS V13.01,2013-01-25 19:39:00,
2013-01-25 13:44:00,18.0,2.9,29.91,NW,311,3.6,4.7,51,0.00,,---,0.00,VWS V13.01,2013-01-25 19:44:00,
2013-01-25 13:50:00,19.0,3.5,29.91,NNW,332,4.5,4.5,50,0.00,,---,0.00,VWS V13.01,2013-01-25 19:50:00,
2013-01-25 13:56:00,19.9,3.0,29.91,NNW,329,3.6,6.5,47,0.00,,---,0.00,VWS V13.01,2013-01-25 19:56:00,
2013-01-25 14:01:00,20.5,3.0,29.91,WNW,302,5.1,6.5,46,0.00,,---,0.00,VWS V13.01,2013-01-25 20:01:00,
2013-01-25 14:07:00,21.0,3.0,29.91,WSW,256,4.7,6.0,45,0.00,,---,0.00,VWS V13.01,2013-01-25 20:07:00,
2013-01-25 14:12:00,21.4,3.3,29.91,SW,232,7.8,7.8,45,0.00,,---,0.00,VWS V13.01,2013-01-25 20:12:00,
2013-01-25 14:18:00,21.4,3.3,29.91,WNW,298,7.4,7.8,45,0.00,,---,0.00,VWS V13.01,2013-01-25 20:18:00,
2013-01-25 14:23:00,20.8,2.4,29.91,NNW,341,7.8,7.8,44,0.00,,---,0.00,VWS V13.01,2013-01-25 20:23:00,
2013-01-25 14:29:00,19.8,1.4,29.94,NNW,339,4.0,4.0,44,0.00,,---,0.00,VWS V13.01,2013-01-25 20:29:00,
2013-01-25 14:34:00,19.6,1.2,29.94,NW,310,5.6,6.5,44,0.00,,---,0.00,VWS V13.01,2013-01-25 20:34:00,
2013-01-25 14:39:00,19.6,1.2,29.94,NNW,340,5.1,6.9,44,0.00,,---,0.00,VWS V13.01,2013-01-25 20:39:00,
2013-01-25 14:44:00,18.7,0.4,29.94,NNW,346,5.1,6.0,44,0.00,,---,0.00,VWS V13.01,2013-01-25 20:44:00,
2013-01-25 14:49:00,17.8,0.1,29.94,WNW,298,3.6,4.5,45,0.00,,---,0.00,VWS V13.01,2013-01-25 20:49:00,
2013-01-25 14:55:00,17.1,-0.1,29.94,North,0,5.1,5.1,46,0.00,,---,0.00,VWS V13.01,2013-01-25 20:55:00,
2013-01-25 15:00:00,16.7,-0.5,29.97,NW,322,4.5,4.7,46,0.00,,---,0.00,VWS V13.01,2013-01-25 21:00:00,
2013-01-25 15:05:00,16.3,-0.3,29.97,NW,325,3.6,5.1,47,0.00,,---,0.00,VWS V13.01,2013-01-25 21:05:00,
2013-01-25 15:10:00,16.0,0.2,29.97,North,357,5.1,5.1,49,0.00,,---,0.00,VWS V13.01,2013-01-25 21:10:00,
2013-01-25 15:16:00,15.8,0.9,29.97,NNW,342,4.5,5.1,51,0.00,,---,0.00,VWS V13.01,2013-01-25 21:16:00,
2013-01-25 15:22:00,15.6,1.1,29.97,NNW,341,5.1,5.1,52,0.00,,---,0.00,VWS V13.01,2013-01-25 21:22:00,
2013-01-25 15:28:00,15.4,1.4,29.97,NNW,339,4.5,4.7,53,0.00,,---,0.00,VWS V13.01,2013-01-25 21:28:00,
2013-01-25 15:34:00,15.3,1.6,29.97,NNW,341,4.5,4.5,54,0.00,,---,0.00,VWS V13.01,2013-01-25 21:34:00,
2013-01-25 15:39:00,15.3,2.0,29.97,WNW,286,3.6,5.1,55,0.00,,---,0.00,VWS V13.01,2013-01-25 21:39:00,
2013-01-25 15:45:00,15.1,2.2,29.97,North,6,3.6,4.0,56,0.00,,---,0.00,VWS V13.01,2013-01-25 21:45:00,
2013-01-25 15:50:00,15.1,2.2,29.97,WNW,292,3.6,4.0,56,0.00,,---,0.00,VWS V13.01,2013-01-25 21:50:00,
2013-01-25 15:56:00,15.1,2.6,30.00,West,281,4.7,6.0,57,0.00,,---,0.00,VWS V13.01,2013-01-25 21:56:00,
2013-01-25 16:01:00,15.1,2.6,30.00,WNW,302,4.5,4.5,57,0.00,,---,0.00,VWS V13.01,2013-01-25 22:01:00,
2013-01-25 16:06:00,14.9,2.4,30.00,NW,320,3.6,5.1,57,0.00,,---,0.00,VWS V13.01,2013-01-25 22:06:00,
2013-01-25 16:12:00,14.9,2.4,30.00,WNW,285,3.1,3.6,57,0.00,,---,0.00,VWS V13.01,2013-01-25 22:12:00,
2013-01-25 16:17:00,14.9,2.8,30.00,WNW,286,4.0,5.1,58,0.00,,---,0.00,VWS V13.01,2013-01-25 22:17:00,
2013-01-25 16:22:00,14.7,2.6,30.00,NW,318,4.0,4.0,58,0.00,,---,0.00,VWS V13.01,2013-01-25 22:22:00,
2013-01-25 16:27:00,14.7,2.6,30.00,West,278,3.6,4.7,58,0.00,,---,0.00,VWS V13.01,2013-01-25 22:27:00,
2013-01-25 16:32:00,14.5,2.5,30.00,NW,318,4.5,5.1,58,0.00,,---,0.00,VWS V13.01,2013-01-25 22:32:00,
2013-01-25 16:37:00,14.4,2.3,30.00,WNW,290,4.5,4.7,58,0.00,,---,0.00,VWS V13.01,2013-01-25 22:37:00,
2013-01-25 16:43:00,14.2,2.5,30.00,WSW,239,4.7,5.1,59,0.00,,---,0.00,VWS V13.01,2013-01-25 22:43:00,
2013-01-25 16:49:00,14.0,2.7,30.00,NW,322,4.5,6.0,60,0.00,,---,0.00,VWS V13.01,2013-01-25 22:49:00,
2013-01-25 16:54:00,13.8,2.5,30.00,NW,321,4.7,4.7,60,0.00,,---,0.00,VWS V13.01,2013-01-25 22:54:00,
2013-01-25 17:00:00,13.6,2.3,30.03,North,350,5.1,5.1,60,0.00,,---,0.00,VWS V13.01,2013-01-25 23:00:00,
2013-01-25 17:05:00,13.6,2.3,30.03,North,9,4.5,4.7,60,0.00,,---,0.00,VWS V13.01,2013-01-25 23:05:00,
2013-01-25 17:10:00,13.5,2.2,30.03,NNW,341,4.0,4.5,60,0.00,,---,0.00,VWS V13.01,2013-01-25 23:10:00,
2013-01-25 17:15:00,13.5,2.2,30.03,NNW,339,4.7,6.0,60,0.00,,---,0.00,VWS V13.01,2013-01-25 23:15:00,
2013-01-25 17:21:00,13.3,2.0,30.03,NW,318,4.5,4.5,60,0.00,,---,0.00,VWS V13.01,2013-01-25 23:21:00,
2013-01-25 17:26:00,13.1,1.8,30.03,NNW,343,4.7,5.6,60,0.00,,---,0.00,VWS V13.01,2013-01-25 23:26:00,
2013-01-25 17:32:00,12.9,1.7,30.03,NW,310,4.0,4.5,60,0.00,,---,0.00,VWS V13.01,2013-01-25 23:32:00,
2013-01-25 17:37:00,12.9,1.7,30.03,NNW,329,4.5,4.7,60,0.00,,---,0.00,VWS V13.01,2013-01-25 23:37:00,
2013-01-25 17:42:00,12.7,1.5,30.03,NNE,17,4.5,6.0,60,0.00,,---,0.00,VWS V13.01,2013-01-25 23:42:00,
2013-01-25 17:47:00,12.6,1.3,30.03,NNW,332,4.5,6.0,60,0.00,,---,0.00,VWS V13.01,2013-01-25 23:47:00,
2013-01-25 17:53:00,12.2,1.0,30.03,North,357,3.6,5.6,60,0.00,,---,0.00,VWS V13.01,2013-01-25 23:53:00,
2013-01-25 17:58:00,12.2,1.0,30.03,NNW,337,5.1,5.1,60,0.00,,---,0.00,VWS V13.01,2013-01-25 23:58:00,
2013-01-25 18:03:00,12.0,0.8,30.03,NNW,333,4.0,5.1,60,0.00,,---,0.00,VWS V13.01,2013-01-26 00:03:00,
2013-01-25 18:09:00,12.0,0.8,30.03,NNW,340,4.7,7.4,60,0.00,,---,0.00,VWS V13.01,2013-01-26 00:09:00,
2013-01-25 18:15:00,11.8,0.6,30.06,NW,307,4.7,5.1,60,0.00,,---,0.00,VWS V13.01,2013-01-26 00:15:00,
2013-01-25 18:21:00,11.8,0.6,30.06,NNW,328,5.6,6.9,60,0.00,,---,0.00,VWS V13.01,2013-01-26 00:21:00,
2013-01-25 18:27:00,11.7,0.5,30.06,NNW,341,6.9,6.9,60,0.00,,---,0.00,VWS V13.01,2013-01-26 00:27:00,
2013-01-25 18:33:00,11.7,0.5,30.06,NNW,338,6.0,6.5,60,0.00,,---,0.00,VWS V13.01,2013-01-26 00:33:00,
2013-01-25 18:38:00,11.5,0.3,30.06,NNW,330,6.0,7.4,60,0.00,,---,0.00,VWS V13.01,2013-01-26 00:38:00,
2013-01-25 18:43:00,11.3,0.1,30.06,SE,138,5.6,6.0,60,0.00,,---,0.00,VWS V13.01,2013-01-26 00:43:00,
2013-01-25 18:48:00,11.3,0.1,30.06,NNW,346,5.1,5.1,60,0.00,,---,0.00,VWS V13.01,2013-01-26 00:48:00,
2013-01-25 18:54:00,11.3,0.1,30.06,North,357,4.7,6.9,60,0.00,,---,0.00,VWS V13.01,2013-01-26 00:54:00,
2013-01-25 18:59:00,11.3,0.1,30.06,North,2,4.0,5.1,60,0.00,,---,0.00,VWS V13.01,2013-01-26 00:59:00,
2013-01-25 19:05:00,11.3,0.1,30.06,NNW,348,6.0,8.7,60,0.00,,---,0.00,VWS V13.01,2013-01-26 01:05:00,
2013-01-25 19:11:00,11.1,0.0,30.09,North,357,4.7,5.1,60,0.00,,---,0.00,VWS V13.01,2013-01-26 01:11:00,
2013-01-25 19:16:00,11.1,0.0,30.09,North,350,4.5,5.6,60,0.00,,---,0.00,VWS V13.01,2013-01-26 01:16:00,
2013-01-25 19:22:00,11.1,0.0,30.09,NNW,331,5.1,5.1,60,0.00,,---,0.00,VWS V13.01,2013-01-26 01:22:00,
2013-01-25 19:27:00,10.9,-0.2,30.09,NNW,341,3.1,3.1,60,0.00,,---,0.00,VWS V13.01,2013-01-26 01:27:00,
2013-01-25 19:33:00,10.9,-0.2,30.09,North,357,6.0,6.0,60,0.00,,---,0.00,VWS V13.01,2013-01-26 01:33:00,
2013-01-25 19:39:00,10.9,-0.2,30.09,NNW,330,4.7,5.1,60,0.00,,---,0.00,VWS V13.01,2013-01-26 01:39:00,
2013-01-25 19:44:00,10.9,-0.2,30.09,North,2,3.6,4.0,60,0.00,,---,0.00,VWS V13.01,2013-01-26 01:44:00,
2013-01-25 19:50:00,10.8,-0.4,30.09,NNW,329,4.0,5.1,60,0.00,,---,0.00,VWS V13.01,2013-01-26 01:50:00,
2013-01-25 19:56:00,10.8,-0.4,30.12,NNW,335,4.7,4.7,60,0.00,,---,0.00,VWS V13.01,2013-01-26 01:56:00,
2013-01-25 20:01:00,10.8,-0.4,30.12,NW,315,3.6,3.6,60,0.00,,---,0.00,VWS V13.01,2013-01-26 02:01:00,
2013-01-25 20:07:00,10.6,-0.6,30.12,SSE,153,4.0,4.5,60,0.00,,---,0.00,VWS V13.01,2013-01-26 02:07:00,
2013-01-25 20:12:00,10.6,-0.6,30.12,SSE,156,3.6,4.0,60,0.00,,---,0.00,VWS V13.01,2013-01-26 02:12:00,
2013-01-25 20:17:00,10.4,-0.7,30.12,NW,310,4.0,4.0,60,0.00,,---,0.00,VWS V13.01,2013-01-26 02:17:00,
2013-01-25 20:22:00,10.4,-0.7,30.12,NNW,346,3.1,3.6,60,0.00,,---,0.00,VWS V13.01,2013-01-26 02:22:00,
2013-01-25 20:28:00,10.4,-0.7,30.12,NNW,342,3.1,4.0,60,0.00,,---,0.00,VWS V13.01,2013-01-26 02:28:00,
2013-01-25 20:33:00,10.4,-0.7,30.12,NNW,328,3.6,4.5,60,0.00,,---,0.00,VWS V13.01,2013-01-26 02:33:00,
2013-01-25 20:38:00,10.2,-0.9,30.12,NNW,345,4.0,4.0,60,0.00,,---,0.00,VWS V13.01,2013-01-26 02:38:00,
2013-01-25 20:44:00,10.2,-0.9,30.12,NW,324,4.0,4.5,60,0.00,,---,0.00,VWS V13.01,2013-01-26 02:44:00,
2013-01-25 20:49:00,10.2,-0.9,30.12,NNE,20,4.7,5.1,60,0.00,,---,0.00,VWS V13.01,2013-01-26 02:49:00,
2013-01-25 20:55:00,10.2,-0.9,30.12,NNW,343,4.0,4.7,60,0.00,,---,0.00,VWS V13.01,2013-01-26 02:55:00,
2013-01-25 21:00:00,10.0,-1.1,30.12,NNW,336,3.6,4.0,60,0.00,,---,0.00,VWS V13.01,2013-01-26 03:00:00,
2013-01-25 21:06:00,10.0,-1.1,30.12,NNW,335,3.6,4.7,60,0.00,,---,0.00,VWS V13.01,2013-01-26 03:06:00,
2013-01-25 21:12:00,10.0,-1.1,30.12,NNW,340,4.0,4.0,60,0.00,,---,0.00,VWS V13.01,2013-01-26 03:12:00,
2013-01-25 21:17:00,9.9,-1.2,30.12,NNW,340,4.0,4.7,60,0.00,,---,0.00,VWS V13.01,2013-01-26 03:17:00,
2013-01-25 21:22:00,9.7,-1.4,30.12,WSW,239,6.5,6.5,60,0.00,,---,0.00,VWS V13.01,2013-01-26 03:22:00,
2013-01-25 21:27:00,9.7,-1.4,30.12,NNE,21,4.5,4.7,60,0.00,,---,0.00,VWS V13.01,2013-01-26 03:27:00,
2013-01-25 21:33:00,9.7,-1.4,30.12,NNW,334,4.5,5.6,60,0.00,,---,0.00,VWS V13.01,2013-01-26 03:33:00,
2013-01-25 21:38:00,9.5,-1.6,30.12,NNW,334,3.1,3.6,60,0.00,,---,0.00,VWS V13.01,2013-01-26 03:38:00,
2013-01-25 21:43:00,9.5,-1.6,30.12,NNW,329,0.0,3.1,60,0.00,,---,0.00,VWS V13.01,2013-01-26 03:43:00,
2013-01-25 21:48:00,9.5,-1.6,30.12,NNW,341,3.6,4.0,60,0.00,,---,0.00,VWS V13.01,2013-01-26 03:48:00,
2013-01-25 21:54:00,9.5,-1.6,30.12,NNW,338,4.0,4.0,60,0.00,,---,0.00,VWS V13.01,2013-01-26 03:54:00,
2013-01-25 22:00:00,9.3,-1.7,30.12,NNW,338,4.7,4.7,60,0.00,,---,0.00,VWS V13.01,2013-01-26 04:00:00,
2013-01-25 22:05:00,9.3,-1.7,30.12,NNW,332,2.7,4.0,60,0.00,,---,0.00,VWS V13.01,2013-01-26 04:05:00,
2013-01-25 22:10:00,9.3,-1.7,30.12,NNW,344,4.5,4.5,60,0.00,,---,0.00,VWS V13.01,2013-01-26 04:10:00,
2013-01-25 22:16:00,9.3,-1.7,30.12,ESE,102,2.7,4.0,60,0.00,,---,0.00,VWS V13.01,2013-01-26 04:16:00,
2013-01-25 22:22:00,9.1,-1.9,30.12,NNW,346,3.6,3.6,60,0.00,,---,0.00,VWS V13.01,2013-01-26 04:22:00,
2013-01-25 22:28:00,9.1,-1.9,30.15,West,276,4.0,4.5,60,0.00,,---,0.00,VWS V13.01,2013-01-26 04:28:00,
2013-01-25 22:33:00,9.1,-1.9,30.15,WNW,299,0.0,0.0,60,0.00,,---,0.00,VWS V13.01,2013-01-26 04:33:00,
2013-01-25 22:39:00,9.1,-1.9,30.15,NW,325,3.1,4.7,60,0.00,,---,0.00,VWS V13.01,2013-01-26 04:39:00,
2013-01-25 22:44:00,9.0,-2.1,30.15,WNW,297,3.6,4.0,60,0.00,,---,0.00,VWS V13.01,2013-01-26 04:44:00,
2013-01-25 22:49:00,9.0,-2.1,30.15,NNW,330,3.6,3.6,60,0.00,,---,0.00,VWS V13.01,2013-01-26 04:49:00,
2013-01-25 22:54:00,9.0,-2.1,30.15,NNW,335,0.0,3.6,60,0.00,,---,0.00,VWS V13.01,2013-01-26 04:54:00,
2013-01-25 23:00:00,9.0,-2.1,30.15,NW,309,0.0,0.0,60,0.00,,---,0.00,VWS V13.01,2013-01-26 05:00:00,
2013-01-25 23:01:00,9.0,-2.1,30.15,NW,309,0.0,0.0,60,0.00,,---,0.00,VWS V13.01,2013-01-26 05:01:00,
2013-01-25 23:03:00,9.0,-2.1,30.15,NW,310,0.0,0.0,60,0.00,,---,0.00,VWS V13.01,2013-01-26 05:03:00,
2013-01-25 23:07:00,8.8,-2.3,30.15,NW,309,0.0,0.0,60,0.00,,---,0.00,VWS V13.01,2013-01-26 05:07:00,
2013-01-25 23:12:00,8.8,-2.3,30.15,WNW,298,3.1,3.1,60,0.00,,---,0.00,VWS V13.01,2013-01-26 05:12:00,
2013-01-25 23:18:00,8.8,-2.3,30.15,WNW,284,4.0,4.5,60,0.00,,---,0.00,VWS V13.01,2013-01-26 05:18:00,
2013-01-25 23:23:00,8.8,-2.3,30.15,NW,315,3.1,4.0,60,0.00,,---,0.00,VWS V13.01,2013-01-26 05:23:00,
2013-01-25 23:29:00,8.8,-2.3,30.18,NW,322,3.1,4.0,60,0.00,,---,0.00,VWS V13.01,2013-01-26 05:29:00,
2013-01-25 23:34:00,8.8,-2.3,30.18,NW,322,2.7,3.6,60,0.00,,---,0.00,VWS V13.01,2013-01-26 05:34:00,
2013-01-25 23:40:00,8.8,-2.3,30.18,North,6,3.1,3.1,60,0.00,,---,0.00,VWS V13.01,2013-01-26 05:40:00,
2013-01-25 23:45:00,8.8,-2.3,30.18,NNW,332,3.1,3.6,60,0.00,,---,0.00,VWS V13.01,2013-01-26 05:45:00,
2013-01-25 23:50:00,8.8,-2.3,30.18,North,353,3.1,3.6,60,0.00,,---,0.00,VWS V13.01,2013-01-26 05:50:00,
2013-01-25 23:55:00,8.8,-2.3,30.18,North,353,3.6,3.6,60,0.00,,---,0.00,VWS V13.01,2013-01-26 05:55:00,